Location: Unspecified
(40.7945°N, 111.1337°W)
Time: 11:14:28
(UTC-06:00)

Resurs 1-4 Rocket - Pass Details

Date: 25 March 2019
Orbit: 800 x 813 km, 98.6° (Epoch: 19 October)

Event Time Altitude Azimuth Distance (km) Brightness Sun altitude
Rises 04:39:49 0° 356° (N) 3,332 5.7 -29.5°
Reaches altitude 10° 04:42:56 10° 337° (NNW) 2,393 4.6 -29.0°
Enters shadow 04:43:47 13° 329° (NNW) 2,206 4.4 -28.9°
